ARIANE 5 DEB, 43382

Orbit data source: Space-Track

ARIANE 5 DEB, 43382 is space debris in HEO originally from a launch on Thu, 12 Jun 2008 UTC launched from the French Guiana (FRGUI). Debris objects in space refer to the collection of defunct objects orbiting the Earth. Examples of debris include non-operational satellites, rocket bodies, and fragments generated from explosions, collisions, or faulty payload assembly.

Loading next visibility...
Identifier
43382, 2008-030E
Orbit
HEO
Country
Flag of FRFR
Related business
Manufacturer
Thales Alenia
Mission
Spacecraft
Bus & Motor
Unknown
Mass
Unknown
Launch date (UTC)
2008-06-12 (18 years ago)
Launch vehicle
Unknown
Launch site
French Guiana (FRGUI)
Object type
Payload
Rocket body
Debris
Shape & HBR
Unknown shape, 1.8 m
Radar Cross Section
Large (>1 m²)

Expand to show TLE details & history
Last TLE update: 16 hours ago

TLE from 16 hours ago
0 ARIANE 5 DEB
1 43382U 08030E   25346.61296138  .00000909  00000-0  11015-2 0  9995
2 43382   1.8335  80.0247 7032718 103.9056 336.8530  2.55336691108619
Epoch: 2025-12-12T14:42Z
TLE epoch observation values (Epoch: 2025-12-12T14:42:39.863Z)
Latitude
0.00008°
Longitude
136.94258°
Altitude
7,573.78 km
Speed
6.285 km/s
True Right ascension
05h 16m 38s
True Declination
0° 00' 00"
Sunlit
Object was in full shadow at epoch
Visualization orbit readout
Latitude
Unknown
Longitude
Unknown
Altitude
Unknown
Speed
Unknown
Apparent Right ascension
Unknown
Apparent Declination
Unknown
Sunlit
N/A
Visualization observer readout
Local Sidereal Time
05:23:34
Azimuth
Unknown
Elevation
Unknown
Doppler factor
Unknown
Orbital elements
Apogee altitude
32,144.37 km
Perigee altitude
332.897 km
Semi-major axis
22,616.77 km
Eccentricity
0.70327
Inclination
1.8335°
RAAN
80.0247°
Arg. of periapsis
103.9056°
True anomaly
255.21173°
Mean anomaly
336.853°
Eccentric anomaly
303.096°
Mean motion
0.63811 °/min
Orbital period
564.16 mins
BSTAR
0.0011015
Loading maneuver chart data...
Computing Atmospheric mass density...
Loading historical data...
Loading historical data...
Loading historical data...
Loading historical data...
Loading historical data...
Loading historical data...
Loading historical data...

Documentation

Showing up to 5 results
|